Lid_Strength_Index
6 6 6 6 6 6 5 5 5 5 4 3 2 2 2 1 1 4 6 3 1 -0 0 3 4 4 4 5 3 3 7 9 9 9 9 8 9 7 6 7 5 6 6 7 7
7 7 6 6 6 6 6 5 5 5 4 3 2 2 2 2 5 6 2 0 -0 0 3 5 6 5 6 6 6 6 8 10 8 9 10 8 8 8 8 8 8 7 6 5 5
7 7 7 7 6 6 6 6 5 5 4 3 2 2 2 3 7 7 1 0 0 1 3 4 5 6 7 7 7 8 10 8 9 9 8 9 9 7 8 9 8 8 7 6 5
7 7 7 7 7 7 6 6 5 5 4 3 2 2 2 5 11 5 1 1 1 3 4 5 6 7 8 9 7 9 9 8 8 8 8 8 7 8 8 7 6 6 5 5 6
7 8 7 7 7 7 6 6 5 5 4 3 2 3 5 7 8 4 1 2 3 4 5 6 7 7 9 8 8 9 9 8 8 8 8 7 8 8 7 6 5 4 4 4 5
8 8 8 8 7 7 6 6 5 5 5 4 2 3 6 10 4 3 3 3 4 4 5 5 7 6 8 8 9 8 8 8 8 8 8 8 8 7 7 6 6 5 5 4 4
8 8 9 8 7 7 6 6 5 5 5 4 3 5 6 8 4 3 3 4 4 4 6 5 6 7 7 9 8 8 10 9 9 8 9 8 9 9 6 6 6 6 5 4 4
7 8 9 8 7 7 6 6 5 6 5 5 4 4 8 4 3 4 4 4 3 4 5 5 5 7 7 7 9 10 9 11 9 8 8 8 11 8 6 7 7 6 5 4 3
7 8 9 8 7 7 7 6 6 6 6 6 6 6 9 3 6 4 4 6 5 5 5 5 5 7 8 9 10 10 12 12 11 9 9 8 11 8 6 7 7 6 5 4 3
8 8 9 8 7 7 7 7 6 7 7 8 7 8 7 9 6 5 4 5 7 6 6 6 7 8 8 10 12 12 13 13 12 10 9 10 10 8 7 7 7 7 6 5 4
8 9 9 8 8 8 8 9 10 10 9 11 11 10 8 6 5 6 5 6 7 8 9 8 9 12 11 10 10 11 12 13 11 10 10 10 10 9 8 7 8 7 6 6 5
8 9 9 8 8 8 9 12 11 9 12 10 10 9 7 6 9 7 5 8 9 10 9 9 12 11 10 10 11 11 12 13 11 11 11 10 10 9 8 8 7 7 6 6 5
8 9 10 9 8 9 10 11 8 9 12 13 11 11 9 7 10 9 7 8 9 10 10 11 12 10 11 11 12 12 12 13 13 11 10 11 11 10 8 7 7 6 5 5 6
8 9 10 9 10 10 11 9 8 9 15 15 14 12 10 8 11 8 7 9 10 11 11 11 11 11 11 12 11 13 11 12 13 12 13 10 15 11 9 9 8 7 6 6 6
7 9 10 9 10 12 10 9 8 10 18 16 15 10 10 11 10 10 8 8 11 12 11 13 12 12 12 12 11 13 11 12 12 12 13 12 14 11 9 11 9 8 7 6 7
7 9 9 10 10 10 9 9 10 17 20 18 15 14 13 12 11 10 10 9 10 11 11 12 10 10 11 11 11 11 12 12 12 13 16 13 14 14 12 11 9 8 7 7 7
7 8 9 10 12 8 9 11 18 19 18 18 18 15 14 14 13 12 12 12 13 14 14 13 13 11 10 12 11 11 13 15 17 16 16 13 14 12 10 9 9 9 7 8 7
7 7 9 9 8 9 11 14 20 17 17 17 16 16 16 15 15 13 13 13 13 14 14 14 15 13 11 12 13 13 13 15 19 18 16 13 15 12 9 8 7 7 7 7 7
7 9 10 9 10 10 13 18 17 17 18 18 17 17 18 17 15 15 14 13 13 12 13 15 16 12 11 10 11 13 14 12 15 17 17 14 12 10 8 9 8 8 7 7 8
10 11 11 9 10 11 15 17 17 18 16 16 17 17 18 18 17 16 15 13 14 12 12 14 16 14 12 11 11 12 11 15 14 19 19 16 15 13 12 11 9 9 8 8 7
12 14 11 10 10 14 18 17 17 17 16 17 17 19 17 18 17 16 16 15 13 12 11 13 14 15 13 14 14 13 14 14 14 15 18 19 15 11 12 10 10 9 8 8 8
12 16 10 10 16 17 18 18 17 18 16 16 16 17 17 17 18 17 17 15 12 11 14 12 13 16 15 13 12 12 14 13 16 17 15 16 16 10 10 10 9 9 8 8 8
16 15 11 11 19 19 19 19 17 18 17 17 17 17 17 18 19 17 16 14 13 13 14 13 15 18 17 15 14 14 13 14 14 14 17 17 15 10 10 10 9 9 9 8 8
15 17 15 14 14 17 18 19 19 16 16 16 17 16 17 18 17 18 17 15 14 14 13 12 14 16 17 16 14 16 15 14 14 16 16 15 14 12 11 11 10 9 9 9 9
15 15 14 19 18 18 17 17 19 19 17 16 18 17 17 19 18 18 17 16 15 14 14 14 17 16 16 16 15 15 16 15 16 14 16 14 14 12 11 11 10 9 9 9 9
15 15 14 15 15 17 18 18 18 17 17 18 18 17 17 18 17 18 17 17 17 15 16 16 18 18 20 18 17 18 16 16 15 14 14 13 13 10 10 10 10 9 9 9 10
11 11 12 15 16 17 18 18 17 16 16 15 16 17 18 16 15 14 14 14 14 16 17 17 19 19 19 20 19 20 19 17 15 14 13 15 12 10 11 11 11 10 10 10 10